Weather History for Highgate, VT

Change the Weather History Date:

Monday, January 21, 2013

  Actual Average (KPBG) Record (KPBG)
Temperature  
Mean Temperature 5 °F 16 °F  
Max Temperature 9 °F 27 °F 48 °F (1951)
Min Temperature 1 °F 5 °F -16 °F (1984)
Degree Days  
Heating Degree Days 60 49  
Month to date heating degree days 1004  
Since 1 July heating degree days 3890  
Moisture  
Dew Point -3 °F    
Average Humidity 65    
Maximum Humidity 77    
Minimum Humidity 56    
Precipitation  
Precipitation 0.00 in - 1.70 in (1978)
Month to date precipitation  
Year to date precipitation  
Sea Level Pressure  
Sea Level Pressure 30.00 in    
Wind  
Wind Speed 5 mph (NNW)    
Max Wind Speed 9 mph    
Max Gust Speed -    
Visibility 10 miles    
Events      
T = Trace of Precipitation, MM = Missing Value Source: NWS Daily Summary

Daily Weather History Graph

Daily Weather History Graph

Search for Another Location

Airport:

Trip Planner

Search our weather history database for the weather conditions in past years. The results will help you decide how hot, cold, wet, or windy it might be!

Date:

Astronomy

Jan. 21, 2013 Rise Set
Actual Time 7:22 AM EST 4:45 PM EST
Civil Twilight 6:50 AM EST 5:17 PM EST
Nautical Twilight 6:14 AM EST 5:53 PM EST
Astronomical Twilight 5:39 AM EST 6:28 PM EST
Moon 12:22 PM EST (1/21) 2:48 AM EST (1/21)
Length of Visible Light 10h 27m
Length of Day
9h 22m
Waxing Gibbous, 75% of the Moon is Illuminated
Jan 21
Waxing Gibbous
Jan 26
Full
Feb 3
Last Quarter
Feb 10
New
Feb 17
First Quarter

Hourly Weather History & Observations

Time (EST) Temp. Windchill Dew Point Humidity Pressure Visibility Wind Dir Wind Speed Gust Speed Precip Events Conditions
12:15 AM 8.2 °F -1.8 °F -3.1 °F 60% 30.01 in 10.0 mi WNW 5.8 mph - N/A   Overcast
12:35 AM 7.2 °F -3.0 °F -4.5 °F 59% 30.01 in 10.0 mi WNW 5.8 mph - N/A   Overcast
12:55 AM 6.8 °F -4.8 °F -4.9 °F 59% 30.02 in 10.0 mi WNW 6.9 mph - N/A   Overcast
1:15 AM 6.8 °F -4.8 °F -5.4 °F 57% 30.02 in 10.0 mi West 6.9 mph - N/A   Overcast
1:35 AM 6.8 °F -2.0 °F -5.8 °F 56% 30.03 in 10.0 mi WNW 4.6 mph - N/A   Overcast
1:55 AM 6.8 °F -3.5 °F -5.1 °F 58% 30.03 in 10.0 mi West 5.8 mph - N/A   Overcast
2:15 AM 6.8 °F -0.1 °F -5.1 °F 58% 30.04 in 10.0 mi West 3.5 mph - N/A   Overcast
2:35 AM 6.8 °F -2.0 °F -5.1 °F 58% 30.04 in 10.0 mi WNW 4.6 mph - N/A   Overcast
2:55 AM 6.8 °F -2.0 °F -4.9 °F 59% 30.04 in 10.0 mi West 4.6 mph - N/A   Overcast
3:15 AM 6.8 °F -4.8 °F -4.4 °F 60% 30.04 in 10.0 mi WNW 6.9 mph - N/A   Overcast
3:35 AM 6.3 °F -5.4 °F -4.9 °F 60% 30.04 in 10.0 mi WNW 6.9 mph - N/A   Overcast
3:55 AM 5.7 °F -1.3 °F -4.9 °F 62% 30.03 in 10.0 mi WNW 3.5 mph - N/A   Overcast
4:15 AM 5.5 °F -1.5 °F -5.1 °F 62% 30.04 in 10.0 mi WNW 3.5 mph - N/A   Overcast
4:35 AM 6.6 °F - -4.2 °F 61% 30.04 in 10.0 mi Calm Calm - N/A   Overcast
4:55 AM 6.6 °F -2.2 °F -4.2 °F 61% 30.04 in 10.0 mi WNW 4.6 mph - N/A   Overcast
5:15 AM 4.8 °F -2.3 °F -6.2 °F 61% 30.04 in 10.0 mi WNW 3.5 mph - N/A   Overcast
5:35 AM 4.5 °F -2.7 °F -6.3 °F 61% 30.04 in 10.0 mi West 3.5 mph - N/A   Mostly Cloudy
5:55 AM 4.5 °F -6.3 °F -6.0 °F 62% 30.04 in 10.0 mi WNW 5.8 mph - N/A   Scattered Clouds
6:15 AM 4.5 °F -4.7 °F -6.0 °F 62% 30.05 in 10.0 mi NW 4.6 mph - N/A   Scattered Clouds
6:35 AM 3.2 °F -4.2 °F -6.5 °F 64% 30.05 in 10.0 mi NW 3.5 mph - N/A   Clear
6:55 AM 2.1 °F - -6.7 °F 67% 30.05 in 10.0 mi Calm Calm - N/A   Clear
7:15 AM 1.9 °F - -6.7 °F 67% 30.06 in 10.0 mi Calm Calm - N/A   Clear
7:35 AM 1.4 °F - -6.7 °F 69% 30.06 in 10.0 mi Calm Calm - N/A   Clear
8:15 AM 3.0 °F -4.4 °F -5.8 °F 67% 30.08 in 10.0 mi NNW 3.5 mph - N/A   Clear
8:35 AM 4.1 °F -3.2 °F -5.4 °F 65% 30.08 in 10.0 mi NNW 3.5 mph - N/A   Clear
8:55 AM 4.5 °F -4.7 °F -5.8 °F 63% 30.08 in 10.0 mi NNW 4.6 mph - N/A   Clear
9:15 AM 4.5 °F -4.7 °F -5.8 °F 63% 30.08 in 10.0 mi North 4.6 mph - N/A   Clear
9:35 AM 4.6 °F - -5.8 °F 62% 30.08 in 10.0 mi Calm Calm - N/A   Clear
9:55 AM 6.8 °F - -4.0 °F 61% 30.08 in 10.0 mi Calm Calm - N/A   Clear
10:15 AM 6.8 °F -2.0 °F -3.6 °F 62% 30.08 in 10.0 mi North 4.6 mph - N/A   Clear
10:35 AM 6.8 °F -0.1 °F -4.0 °F 61% 30.08 in 10.0 mi NNW 3.5 mph - N/A   Clear
10:55 AM 6.8 °F - -3.8 °F 62% 30.07 in 10.0 mi Calm Calm - N/A   Clear
11:15 AM 6.8 °F -0.1 °F -3.8 °F 62% 30.06 in 10.0 mi WNW 3.5 mph - N/A   Clear
11:35 AM 7.3 °F -1.3 °F -3.5 °F 61% 30.05 in 10.0 mi North 4.6 mph - N/A   Clear
11:55 AM 6.8 °F -0.1 °F -4.0 °F 61% 30.04 in 10.0 mi NW 3.5 mph - N/A   Mostly Cloudy
12:15 PM 8.2 °F - -2.6 °F 61% 30.03 in 10.0 mi Calm Calm - N/A   Overcast
12:35 PM 9.5 °F 1.2 °F -2.2 °F 59% 30.02 in 10.0 mi North 4.6 mph - N/A   Overcast
12:55 PM 9.0 °F 0.6 °F -1.7 °F 62% 30.00 in 10.0 mi North 4.6 mph - N/A   Mostly Cloudy
1:15 PM 8.2 °F 1.6 °F -2.0 °F 63% 29.99 in 10.0 mi North 3.5 mph - N/A   Scattered Clouds
1:35 PM 8.8 °F -2.4 °F -1.7 °F 63% 29.99 in 10.0 mi North 6.9 mph - N/A   Scattered Clouds
1:55 PM 8.1 °F -3.2 °F -2.0 °F 64% 29.99 in 10.0 mi North 6.9 mph - N/A   Clear
2:15 PM 7.2 °F -1.5 °F -2.2 °F 66% 29.99 in 10.0 mi NNW 4.6 mph - N/A   Clear
2:35 PM 7.2 °F -4.3 °F -1.8 °F 67% 29.98 in 10.0 mi North 6.9 mph - N/A   Clear
2:55 PM 6.8 °F -3.5 °F -2.2 °F 67% 29.98 in 10.0 mi North 5.8 mph - N/A   Clear
3:15 PM 6.8 °F -3.5 °F -1.8 °F 68% 29.97 in 10.0 mi North 5.8 mph - N/A   Clear
3:35 PM 6.8 °F -3.5 °F -1.5 °F 69% 29.97 in 10.0 mi North 5.8 mph - N/A   Mostly Cloudy
3:55 PM 6.8 °F -3.5 °F -1.3 °F 69% 29.97 in 10.0 mi North 5.8 mph - N/A   Overcast
4:15 PM 6.8 °F -3.5 °F -1.3 °F 69% 29.96 in 10.0 mi North 5.8 mph - N/A   Overcast
4:35 PM 6.8 °F -0.1 °F -1.3 °F 69% 29.96 in 10.0 mi North 3.5 mph - N/A   Overcast
4:55 PM 6.8 °F -4.8 °F -1.3 °F 69% 29.97 in 10.0 mi North 6.9 mph - N/A   Overcast
5:15 PM 6.8 °F -3.5 °F -1.3 °F 69% 29.97 in 10.0 mi NNE 5.8 mph - N/A   Overcast
5:35 PM 6.8 °F -3.5 °F -1.3 °F 69% 29.97 in 10.0 mi North 5.8 mph - N/A   Overcast
5:55 PM 6.6 °F -3.7 °F -1.7 °F 69% 29.97 in 10.0 mi North 5.8 mph - N/A   Overcast
6:15 PM 6.8 °F -4.8 °F -1.8 °F 68% 29.97 in 10.0 mi NNE 6.9 mph - N/A   Overcast
6:35 PM 6.6 °F -3.7 °F -2.4 °F 67% 29.97 in 10.0 mi NNE 5.8 mph - N/A   Overcast
6:55 PM 6.8 °F -2.0 °F -1.7 °F 68% 29.97 in 7.0 mi North 4.6 mph - N/A   Overcast
7:15 PM 6.8 °F -6.9 °F -0.9 °F 71% 29.96 in 10.0 mi NE 9.2 mph - N/A   Overcast
7:35 PM 6.8 °F -0.1 °F -0.9 °F 71% 29.95 in 10.0 mi NNE 3.5 mph - N/A   Overcast
7:55 PM 6.8 °F -3.5 °F -0.9 °F 71% 29.95 in 10.0 mi NNE 5.8 mph - N/A   Overcast
8:15 PM 6.8 °F -2.0 °F -1.3 °F 69% 29.94 in 10.0 mi NE 4.6 mph - N/A   Overcast
8:35 PM 6.8 °F -2.0 °F -0.9 °F 71% 29.93 in 10.0 mi NE 4.6 mph - N/A   Overcast
9:15 PM 6.8 °F -0.1 °F -0.4 °F 72% 29.92 in 10.0 mi North 3.5 mph - N/A   Overcast
9:35 PM 6.8 °F -0.1 °F -0.4 °F 72% 29.91 in 7.0 mi North 3.5 mph - N/A   Overcast
9:55 PM 6.8 °F -2.0 °F 0.5 °F 75% 29.90 in 7.0 mi North 4.6 mph - N/A   Overcast
10:15 PM 6.8 °F -2.0 °F 0.7 °F 76% 29.90 in 7.0 mi North 4.6 mph - N/A   Overcast
10:35 PM 6.8 °F -4.8 °F 0.9 °F 77% 29.89 in 7.0 mi North 6.9 mph - N/A   Overcast
10:55 PM 6.8 °F -3.5 °F 0.5 °F 75% 29.89 in 10.0 mi North 5.8 mph - N/A   Overcast
11:15 PM 6.8 °F -6.9 °F 0.9 °F 77% 29.88 in 5.0 mi North 9.2 mph - N/A   Haze
11:35 PM 6.8 °F -6.9 °F 1.0 °F 77% 29.88 in 5.0 mi North 9.2 mph - N/A   Haze